Branson, MO

9:34 PM CDT on June 27, 2017 (GMT -0500)
Branson

Weather History for KBBG - February, 2013

Change the Weather History Date:

Tuesday, February 5, 2013

  Actual Average (KHRO) Record (KHRO)
Temperature  
Mean Temperature 47 °F -  
Max Temperature 62 °F 45 °F 87 °F (1927)
Min Temperature 32 °F 25 °F -5 °F (1906)
Degree Days  
Heating Degree Days 18    
Moisture  
Dew Point 31 °F    
Average Humidity 64    
Maximum Humidity 93    
Minimum Humidity 26    
Precipitation  
Precipitation 0.00 in - - ()
Sea Level Pressure  
Sea Level Pressure 30.00 in    
Wind  
Wind Speed 2 mph (NNW)    
Max Wind Speed 13 mph    
Max Gust Speed 18 mph    
Visibility 10 miles    
Events      
Averages and records for this station are not official NWS values.
T = Trace of Precipitation, MM = Missing Value Source: NWS Daily Summary

Daily Weather History Graph

Daily Weather History Graph

Search for Another Location

Airport or City:

Trip Planner

Search our weather history database for the weather conditions in past years. The results will help you decide how hot, cold, wet, or windy it might be!

Date:

Astronomy

Feb. 05, 2013 Rise Set
Actual Time 7:10 AM CST 5:43 PM CST
Civil Twilight 6:43 AM CST 6:10 PM CST
Nautical Twilight 6:13 AM CST 6:40 PM CST
Astronomical Twilight 5:42 AM CST 7:11 PM CST
Moon 2:50 AM CST (2/5) 1:04 PM CST (2/5)
Length of Visible Light 11h 26m
Length of Day
10h 32m
Waning Crescent, 26% of the Moon is Illuminated
Feb 5
Waning Crescent
Feb 10
New
Feb 17
First Quarter
Feb 25
Full
Mar 4
Last Quarter

Hourly Weather History & Observations

Time (CST) Temp. Windchill Dew Point Humidity Pressure Visibility Wind Dir Wind Speed Gust Speed Precip Events Conditions
12:15 AM 39.2 °F - 32.0 °F 75% 29.95 in 10.0 mi Calm Calm - N/A   Clear
12:35 AM 35.6 °F - 30.2 °F 81% 29.95 in 10.0 mi Calm Calm - N/A   Clear
12:55 AM 37.4 °F 34.9 °F 32.0 °F 81% 29.95 in 10.0 mi NW 3.5 mph - N/A   Clear
1:15 AM 33.8 °F - 30.2 °F 87% 29.95 in 10.0 mi Calm Calm - N/A   Clear
1:35 AM 32.0 °F - 28.4 °F 87% 29.95 in 10.0 mi Calm Calm - N/A   Clear
1:55 AM 35.6 °F - 30.2 °F 81% 29.94 in 10.0 mi Calm Calm - N/A   Clear
2:15 AM 35.6 °F 32.8 °F 32.0 °F 87% 29.94 in 10.0 mi SSW 3.5 mph - N/A   Clear
2:35 AM 35.6 °F - 30.2 °F 81% 29.94 in 10.0 mi Calm Calm - N/A   Clear
2:55 AM 32.0 °F - 28.4 °F 87% 29.93 in 10.0 mi Calm Calm - N/A   Clear
3:15 AM 33.8 °F - 30.2 °F 87% 29.93 in 10.0 mi Calm Calm - N/A   Clear
3:35 AM 32.0 °F - 28.4 °F 87% 29.93 in 10.0 mi Calm Calm - N/A   Clear
3:55 AM 32.0 °F - 30.2 °F 93% 29.94 in 10.0 mi Calm Calm - N/A   Clear
4:15 AM 32.0 °F - 30.2 °F 93% 29.93 in 10.0 mi Calm Calm - N/A   Clear
4:55 AM 32.0 °F - 28.4 °F 87% 29.94 in 10.0 mi Calm Calm - N/A   Clear
5:15 AM 33.8 °F - 30.2 °F 87% 29.95 in 10.0 mi Calm Calm - N/A   Clear
5:35 AM 32.0 °F - 28.4 °F 87% 29.94 in 10.0 mi Calm Calm - N/A   Clear
6:51 AM 32.0 °F - 28.4 °F 87% 29.96 in 10.0 mi Calm Calm - N/A   Partly Cloudy
8:48 AM 42.8 °F - 35.6 °F 76% 29.99 in 10.0 mi Calm Calm - N/A   Partly Cloudy
9:52 AM 48.2 °F - 35.6 °F 62% 30.01 in 10.0 mi Calm Calm - N/A   Partly Cloudy
10:58 AM 55.4 °F - 35.6 °F 47% 30.02 in 10.0 mi West 6.9 mph - N/A   Partly Cloudy
11:51 AM 57.2 °F - 35.6 °F 44% 30.01 in 10.0 mi West 6.9 mph - N/A   Partly Cloudy
12:55 PM 60.8 °F - 28.4 °F 29% 29.98 in 10.0 mi West 6.9 mph - N/A   Clear
1:46 PM 62.6 °F - 28.4 °F 27% 29.97 in 10.0 mi WNW 12.7 mph 18.4 mph N/A   Clear
2:45 PM 62.6 °F - 26.6 °F 26% 29.96 in 10.0 mi NW 9.2 mph - N/A   Clear
3:50 PM 62.6 °F - 30.2 °F 30% 29.98 in 10.0 mi NW 8.1 mph - N/A   Clear
4:56 PM 59.0 °F - 30.2 °F 34% 29.99 in 10.0 mi NNW 9.2 mph 16.1 mph N/A   Clear
5:45 PM 57.2 °F - 28.4 °F 33% 29.99 in 10.0 mi NW 5.8 mph - N/A   Clear
6:55 PM 50.0 °F - 30.2 °F 47% 30.02 in 10.0 mi NW 5.8 mph - N/A   Clear
7:55 PM 50.0 °F - 32.0 °F 50% 30.05 in 10.0 mi NW 4.6 mph - N/A   Clear
7:57 PM 50.0 °F - 30.2 °F 47% 30.05 in 10.0 mi NNW 5.8 mph - N/A   Clear
8:15 PM 48.2 °F - 32.0 °F 54% 30.05 in 10.0 mi NNW 3.5 mph - N/A   Clear
8:35 PM 46.4 °F 45.2 °F 32.0 °F 57% 30.05 in 10.0 mi North 3.5 mph - N/A   Clear
8:55 PM 44.6 °F - 32.0 °F 61% 30.06 in 10.0 mi Calm Calm - N/A   Clear
9:15 PM 48.2 °F - 32.0 °F 54% 30.06 in 10.0 mi North 4.6 mph - N/A   Clear
9:35 PM 48.2 °F - 32.0 °F 54% 30.06 in 10.0 mi North 4.6 mph - N/A   Clear
9:55 PM 46.4 °F 45.2 °F 32.0 °F 57% 30.07 in 10.0 mi North 3.5 mph - N/A   Clear
10:15 PM 46.4 °F 45.2 °F 32.0 °F 57% 30.07 in 10.0 mi North 3.5 mph - N/A   Clear
10:35 PM 46.4 °F 45.2 °F 32.0 °F 57% 30.08 in 10.0 mi North 3.5 mph - N/A   Clear
10:55 PM 46.4 °F - 32.0 °F 57% 30.08 in 10.0 mi Calm Calm - N/A   Clear
11:15 PM 46.4 °F 45.2 °F 32.0 °F 57% 30.08 in 10.0 mi NNE 3.5 mph - N/A   Clear
11:35 PM 46.4 °F 45.2 °F 32.0 °F 57% 30.08 in 10.0 mi North 3.5 mph - N/A   Clear
11:55 PM 44.6 °F - 30.2 °F 57% 30.09 in 10.0 mi Calm Calm - N/A   Clear